Location: Arroyo Retuerta
(40.5469°N, 4.3534°W)
Time: 12:02:44
(UTC+00:00)

STARLINK-1124 - Pass Details

Date: 01 June 2020
Orbit: 549 x 550 km, 53.0° (Epoch: 06 July)

Event Time Altitude Azimuth Distance (km) Brightness Sun altitude
Rises 20:40:01 0° 311° (NW) 2,727 9.6 -9.8°
Reaches altitude 10° 20:42:18 10° 315° (NW) 1,832 7.9 -10.1°
Maximum altitude 20:46:24 57° 35° (NE) 652 4.0 -10.7°
Enters shadow 20:49:47 15° 112° (ESE) 1,552 5.3 -11.1°
